Tracking 19164 objects as of 20-May-2018
HD Live streaming from Space Station
objects crossing your sky now

FENGYUN 1C DEB

Track FENGYUN 1C DEB now!
10-day predictions


NORAD ID: 30079
Int'l Code: 1999-025QG
Perigee: 846.4 km
Apogee: 963.6 km
Inclination: 99.3 °
Period: 102.9 minutes
Semi major axis: 7275 km
RCS: 0.052 m2 (small)
Launch date: May 10, 1999
Source: People's Republic of China (PRC)
Launch site: Taiyaun Space Center, China (TSC)

Note: This is SATELLITE DEBRIS
aabbcc
Your satellite tracking list
Your tracking list is empty




NASA's NSSDC Master Catalog

Two Line Element Set (TLE):
1 30079U 99025QG  18140.57768339 +.00000111 +00000-0 +10650-3 0  9994
2 30079 099.3145 140.6563 0080528 319.7336 154.6478 13.98833528578894
Source of the keplerian elements: AFSPC